Corpus Christi, TX

1:19 PM CDT on May 27, 2017 (GMT -0500)
Corpus Christi International

Weather History for KCRP - August, 2013

Change the Weather History Date:

Saturday, August 31, 2013

  Actual Average Record
Temperature  
Mean Temperature 87 °F 84 °F  
Max Temperature 99 °F 93 °F 103 °F (2000)
Min Temperature 75 °F 75 °F 67 °F (1915)
Degree Days  
Heating Degree Days 0 0  
Month to date heating degree days 0 0  
Since 1 June heating degree days 0 0  
Since 1 July heating degree days 0 0  
Cooling Degree Days 22 19  
Month to date cooling degree days 680 611  
Year to date cooling degree days 3013 2561  
Since 1 June cooling degree days 1995 1720  
Growing Degree Days 37 (Base 50)    
Moisture  
Dew Point 70 °F    
Average Humidity 60    
Maximum Humidity 82    
Minimum Humidity 38    
Precipitation  
Precipitation 0.00 in 0.16 in 2.13 in (1987)
Month to date precipitation 1.21 2.92  
Year to date precipitation 11.01 19.34  
Snow  
Snow 0.00 in - - ()
Month to date snowfall 0.0  
Since 1 June snowfall 0.0  
Since 1 July snowfall 0.0  
Snow Depth 0.00 in    
Sea Level Pressure  
Sea Level Pressure 29.90 in    
Wind  
Wind Speed 8 mph (SSE)    
Max Wind Speed 18 mph    
Max Gust Speed 24 mph    
Visibility 10 miles    
Events      
T = Trace of Precipitation, MM = Missing Value Source: NWS Daily Summary

Daily Weather History Graph

Daily Weather History Graph

Search for Another Location

Airport or City:

Trip Planner

Search our weather history database for the weather conditions in past years. The results will help you decide how hot, cold, wet, or windy it might be!

Date:

Astronomy

Aug. 31, 2013 Rise Set
Actual Time 7:08 AM CDT 7:51 PM CDT
Civil Twilight 6:44 AM CDT 8:15 PM CDT
Nautical Twilight 6:16 AM CDT 8:43 PM CDT
Astronomical Twilight 5:47 AM CDT 9:11 PM CDT
Moon 2:52 AM CDT (8/31) 4:37 PM CDT (8/31)
Length of Visible Light 13h 30m
Length of Day
12h 43m
Waning Crescent, 21% of the Moon is Illuminated
Aug 31
Waning Crescent
Sep 5
New
Sep 12
First Quarter
Sep 19
Full
Sep 26
Last Quarter

Hourly Weather History & Observations

Time (CDT) Temp. Heat Index Dew Point Humidity Pressure Visibility Wind Dir Wind Speed Gust Speed Precip Events Conditions
12:51 AM 80.1 °F 83.2 °F 70.0 °F 71% 29.91 in 10.0 mi South 4.6 mph - N/A   Clear
1:51 AM 79.0 °F - 70.0 °F 74% 29.91 in 10.0 mi SSW 5.8 mph - N/A   Clear
2:51 AM 77.0 °F - 70.0 °F 79% 29.91 in 10.0 mi SSW 4.6 mph - N/A   Clear
3:51 AM 75.0 °F - 70.0 °F 84% 29.91 in 10.0 mi SSW 4.6 mph - N/A   Clear
4:51 AM 75.9 °F - 70.0 °F 82% 29.91 in 10.0 mi South 5.8 mph - N/A   Clear
5:51 AM 75.9 °F - 70.0 °F 82% 29.91 in 10.0 mi SSE 3.5 mph - N/A   Partly Cloudy
6:51 AM 75.0 °F - 70.0 °F 84% 29.92 in 10.0 mi SSE 3.5 mph - N/A   Partly Cloudy
7:51 AM 78.1 °F - 72.0 °F 81% 29.94 in 10.0 mi SSE 3.5 mph - N/A   Partly Cloudy
8:51 AM 84.0 °F 91.2 °F 73.9 °F 72% 29.94 in 10.0 mi South 9.2 mph - N/A   Partly Cloudy
9:51 AM 88.0 °F 95.6 °F 73.0 °F 61% 29.95 in 10.0 mi South 10.4 mph - N/A   Scattered Clouds
10:51 AM 91.0 °F 96.6 °F 70.0 °F 50% 29.95 in 10.0 mi South 8.1 mph - N/A   Scattered Clouds
11:51 AM 91.0 °F 95.2 °F 68.0 °F 47% 29.94 in 10.0 mi Variable 3.5 mph - N/A   Scattered Clouds
12:51 PM 95.0 °F 97.9 °F 66.0 °F 38% 29.92 in 10.0 mi Variable 4.6 mph - N/A   Scattered Clouds
1:51 PM 97.0 °F 102.8 °F 69.1 °F 40% 29.89 in 10.0 mi SSE 15.0 mph 19.6 mph N/A   Scattered Clouds
2:51 PM 97.0 °F 102.8 °F 69.1 °F 40% 29.87 in 10.0 mi SE 12.7 mph 21.9 mph N/A   Scattered Clouds
3:51 PM 97.0 °F 101.0 °F 66.9 °F 37% 29.85 in 10.0 mi SE 15.0 mph 23.0 mph N/A   Scattered Clouds
4:51 PM 95.0 °F 99.0 °F 66.9 °F 40% 29.84 in 10.0 mi SSE 11.5 mph 19.6 mph N/A   Partly Cloudy
5:51 PM 93.0 °F 97.4 °F 68.0 °F 44% 29.84 in 10.0 mi SE 15.0 mph - N/A   Partly Cloudy
6:51 PM 91.0 °F 96.6 °F 70.0 °F 50% 29.84 in 10.0 mi SSE 13.8 mph - N/A   Partly Cloudy
7:51 PM 87.1 °F 94.5 °F 73.0 °F 63% 29.85 in 10.0 mi SE 12.7 mph - N/A   Partly Cloudy
8:51 PM 84.9 °F 92.1 °F 73.9 °F 69% 29.86 in 10.0 mi SE 10.4 mph - N/A   Partly Cloudy
9:51 PM 84.0 °F 91.2 °F 73.9 °F 72% 29.88 in 10.0 mi SE 6.9 mph - N/A   Clear
10:51 PM 84.0 °F 91.2 °F 73.9 °F 72% 29.88 in 10.0 mi SSE 8.1 mph - N/A   Clear
11:51 PM 82.9 °F 89.4 °F 73.9 °F 74% 29.88 in 10.0 mi SSE 8.1 mph - N/A   Clear